www.pogodaiklimat.ru

Погода и климат >> Архив погоды >> Россия >> Краснодарский край >> Краснодар


АРХИВ ПОГОДЫ в Краснодаре

Время (UTC), дата Ветер
(напр.,м/с)
 
Видим.   Явления Облачность Т
(С)
Тd
(С)
f
(%)
Тe
(С)
Тes
(С)
Комфортность P
(гПа)
Po
(гПа)
Тmin
(С)
Tmax
(С)
R
(мм)
R24
(мм)
S
(см)
09 14.06 ЮВ 3 10 км ясно +31.1 +9.2 26 +30 +46 жарко 1006.5 1002.6
12 14.06 В 2 10 км ясно +33.5 +8.3 21 +32 +46 жарко 1005.5 1001.6
15 14.06 СВ 3 10 км ясно +32.9 +8.9 23 +32 +34 жарко 1004.7 1000.8 +33.9
18 14.06 СВ 3 10 км ясно +26.3 +11.4 39 +27 +27 жарко 1004.9 1001.0
21 14.06 СВ 3 10 км ясно +22.7 +10.3 45 +25 +25 комфорт 1004.8 1000.8
00 15.06 СВ 2 10 км ясно +18.8 +11.4 62 +20 +20 тепло 1004.9 1000.9
03 15.06 В 2 10 км ясно +20.3 +12.8 62 +23 +24 комфорт 1005.2 1001.2 +17.4
06 15.06 В 2 10 км 1/0
[Ci fib]
+27.4 +13.4 42 +29 +40 жарко 1005.8 1001.9
09 15.06 В 3 10 км 3/0
[Ci]
+32.2 +12.3 30 +33 +48 жарко 1005.4 1001.5
12 15.06 ЮЗ 2 10 км 5/0
[Ac trans Ci]
+34.9 +9.1 21 +34 +45 очень
жарко
1004.6 1000.8
15 15.06 СВ 4 10 км 5/0
[Ac trans Ci fib]
+33.8 +11.8 26 +34 +35 очень
жарко
1004.1 1000.3 +35.9
18 15.06 СВ 2 10 км 3/3 1000 м
[Sc]
+26.7 +14.4 47 +29 +29 жарко 1005.2 1001.3
21 15.06 ЮЗ 3 10 км ясно +24.4 +17.0 63 +28 +28 душно 1006.0 1002.0
00 16.06 ЮЗ 4 10 км 3/3 1000 м
[Sc]
+24.2 +16.5 62 +28 +28 душно 1006.5 1002.5
03 16.06 ЮЗ 4 10 км 8/3 1000 м
[Sc Ac As]
+24.2 +17.1 65 +28 +28 душно 1007.0 1003.0 +23.1
06 16.06 ЮЗ 4 10 км 10/9 1000 м
[Cb cap Ac und]
+24.6 +17.0 63 +28 +29 душно 1008.9 1004.9
09 16.06 З 1 10 км {гроза, ливн. осадки} 10/5 1000 м
[Sc diur, vesp Ac cast Ci fib]
+25.8 +17.8 61 +30 +36 душно 1009.1 1005.1
12 16.06 Ю 4 10 км слабый ливневой дождь {гроза} 10/10 1000 м
[Cb cap]
+23.2 +18.5 75 +29 +29 душно 1010.0 1006.0
15 16.06 ЮВ 1 10 км слабый ливневой дождь {гроза} 10/10 1000 м
[Cb cap]
+21.2 +19.0 87 +26 +26 душно 1009.8 1005.8 +26.5 3
18 16.06 Ю 1 10 км {гроза, ливн. осадки} 10/10 1000 м
[Cb cap]
+20.7 +18.8 89 +26 +26 душно 1009.7 1005.7
21 16.06 Ю 1 10 км 10/10 1000 м
[Sc diur, vesp]
+20.1 +18.6 91 +25 +25 комфорт 1008.6 1004.6
00 17.06 СЗ 1 10 км 10/10 1000 м
[Cb cap]
+20.2 +18.6 91 +25 +25 комфорт 1008.0 1004.0
03 17.06 СВ 1 4000 м дымка {ливн. осадки} 10/10 1000 м
[Cb cap]
+20.0 +18.9 93 +24 +24 комфорт 1007.8 1003.8 +19.5 0.4
06 17.06 СВ 4 10 км в посл. час ливневой дождь 10/10 1000 м
[Cb cap]
+20.2 +17.4 84 +23 +23 комфорт 1008.4 1004.4
09 17.06 СВ 4 10 км 10/8 1000 м
[Sc diur, vesp]
+21.6 +17.5 77 +26 +27 душно 1009.3 1005.3
12 17.06 СВ 5 10 км 10/8 1000 м
[Sc diur, vesp]
+24.1 +15.1 57 +27 +28 жарко 1008.6 1004.6
15 17.06 СВ 6 10 км 9/5 1000 м
[Sc diur, vesp Ac As]
+24.4 +10.3 41 +25 +26 комфорт 1008.1 1004.1 +25.5 0.2
18 17.06 СВ 3 10 км 10/10 1000 м
[Sc]
+21.6 +12.4 56 +24 +24 комфорт 1008.7 1004.7
21 17.06 СВ 3 10 км 10/6 1000 м
[Sc Ac und]
+20.7 +12.5 59 +23 +23 комфорт 1008.2 1004.2
00 18.06 СВ 3 10 км 10/8 1000 м
[Sc Ac und]
+19.9 +12.7 63 +22 +22 комфорт 1007.3 1003.3
03 18.06 С 2 10 км 9/9 1000 м
[Sc]
+19.0 +13.6 71 +21 +21 комфорт 1007.4 1003.4 +18.2
06 18.06 СВ 5 10 км 9/4 1000 м
[Sc Ac cast]
+23.1 +14.4 58 +27 +28 душно 1007.2 1003.2
09 18.06 СВ 5 10 км 9/6 1000 м
[Sc Ac As]
+25.6 +14.6 51 +28 +30 жарко 1007.3 1003.3
12 18.06 СВ 8-12
{12}
10 км 10/8 1000 м
[Cb cap Ac As]
+29.6 +9.9 29 +29 +30 жарко 1006.7 1002.8
15 18.06 В 3
{11}
10 км 9/8 1000 м
[Cb cap Ac trans Ci fib]
+24.3 +15.6 58 +27 +28 жарко 1007.9 1003.9
18 18.06 С 1 10 км 9/9 1000 м
[Sc diur, vesp]
+19.5 +16.0 80 +23 +23 комфорт 1008.6 1004.6
21 18.06 СВ 2 10 км 4/4 1000 м
[Sc diur, vesp]
+17.8 +10.8 64 +18 +18 по сезону 1009.0 1004.9
00 19.06 С 2 10 км 3/0
[Ci fib]
+15.7 +10.8 73 +16 +16 по сезону 1009.7 1005.6
03 19.06 СВ 3 10 км 5/3 1000 м
[Sc Ci fib]
+18.4 +11.2 63 +19 +20 по сезону 1010.8 1006.7 +15.0
06 19.06 В 4 10 км 5/0
[Ac trans Ci]
+24.6 +11.4 44 +26 +32 жарко 1011.7 1007.7
09 19.06 В 7-10
{10}
10 км 3/3
[Cu med, cong]
+29.7 +9.0 28 +29 +33 жарко 1011.4 1007.5
12 19.06 В 5 10 км 3/3 1000 м
[Cu med, cong]
+31.8 +3.2 16 +29 +34 жарко 1011.0 1007.1
15 19.06 СВ 4 10 км 1/1 1000 м
[Cu med, cong]
+31.2 +2.2 16 +29 +30 жарко 1010.8 1006.9 +32.4
18 19.06 С 3 10 км ясно +23.6 +6.3 33 +24 +24 комфорт 1011.6 1007.6
21 19.06 СВ 1 н/о н/о +19.6 +8.7 49 +22 +22 комфорт 1012.2 1008.1
00 20.06 З 1 10 км ясно +15.4 +9.3 67 +16 +16 прохладно 1012.9 1008.8
03 20.06 штиль 0 10 км 1/0
[Ci fib]
+17.2 +12.6 74 +17 +19 прохладно 1013.6 1009.5 +14.2
06 20.06 ЮВ 1 10 км ясно +26.6 +9.9 35 +27 +40 жарко 1014.3 1010.3
09 20.06 ЮВ 3 10 км ясно +30.8 +9.8 27 +30 +46 жарко 1014.2 1010.3
12 20.06 Ю 5 10 км ясно +32.9 +2.7 15 +30 +37 жарко 1013.2 1009.3
15 20.06 ЮВ 3 10 км ясно +32.4 +2.4 15 +30 +32 жарко 1012.5 1008.6 +33.4
18 20.06 СЗ 1 10 км ясно +26.2 +8.3 32 +26 +26 жарко 1013.3 1009.3
21 20.06 СЗ 3 10 км ясно +23.1 +8.4 39 +24 +24 комфорт 1013.9 1009.9
00 21.06 штиль 0 10 км ясно +15.9 +10.0 68 +16 +16 по сезону 1014.2 1010.1
03 21.06 З 2 10 км ясно +20.4 +13.0 62 +23 +24 комфорт 1014.5 1010.4 +15.2

 

Местоположение метеостанции Краснодар (Краснодарский край, Россия): широта 45.05 долгота 39.03 высота над уровнем моря 29 м.

В архиве по умолчанию представлена погода в Краснодаре за последнюю неделю. Архивные данные за месяц целиком и за предыдущие месяцы, начиная с января 2011 года, Вы можете получить, выбрав интересующий диапазон дат из раскрывающегося списка и нажав кнопку "Ввод!".


*Определитесь, кто Вы:
робот инопланетянин человек

Внимание! Время в таблицах - всемирное. Для получения местного времени необходимо прибавить поправку, которая в Краснодаре равна 3 ч.

Смотрите также архив погоды в соседних городах и на ближайших метеорологических станциях:

Погода в Горячем Ключе (Краснодарский край, Россия) (47 км)
Погода в Усть-Лабинске (Краснодарский край, Россия) (58 км)
Погода в Кореновске (Краснодарский край, Россия) (59 км)
Погода в Тимашевске (Краснодарский край, Россия) (65 км)
Погода в Славянске-на-Кубани (Краснодарский край, Россия) (76 км)
Погода в Белореченске (Краснодарский край, Россия) (76 км)
Погода в Крымске (Краснодарский край, Россия) (82 км)
Погода в Джубге (Краснодарский край, Россия) (84 км)
Погода в Горном (Краснодарский край, Россия) (88 км)
Погода в Геленджике (Краснодарский край, Россия) (92 км)

Пояснения к столбцам:

Ветер - указаны скорость ветра в м/с - средняя за 10 мин, порывы в срок и между сроками (в фигурных скобках) и направление, откуда дует ветер: С - северный, СВ - северо-восточный, В - восточный, ЮВ - юго-восточный, Ю - южный, ЮЗ - юго-западный, З - западный, СЗ - северо-западный.
Видимость - горизонтальная дальность видимости в метрах или километрах. При видимости от 1 до 10 км при отсутствии осадков обычно наблюдается дымка, при ухудшении видимости до 1 км и менее - туман. В сухую погоду видимость может ухудшаться дымом, пылью или мглою.
Явления - указаны атмосферные явления, наблюдавшиеся в срок или в последний час перед сроком; фигурными скобками обозначены явления, наблюдавшиеся между сроками (за 1-3 часа до срока); квадратными скобками обозначены град или гололедные отложения с указанием их диаметра в мм.
Облачность - указаны через наклонную черту общая и нижняя облачность в баллах и высота нижней границы облаков в метрах; квадратными скобками обозначены формы облаков: Ci - перистые, Cs - перисто-слоистые, Cc - перисто-кучевые, Ac - высококучевые, As - высокослоистые, Sc - слоисто-кучевые, Ns - слоисто-дождевые, Cu - кучевые, Cb - кучево-дождевые. Подробнее классификацию облаков см. в Атласе облаков (PDF).
T - Температура воздуха - температура, измеренная на высоте 2 м над землей.
Td - Температура точки росы - температура, при понижении до которой содержащийся в воздухе водяной пар достигнет насыщения.
f - Относительная влажность воздуха - влажноcть воздуха, измеренная на высоте 2 м над землей.
Te - Эффективная температура - температура, которую ощущает одетый по сезону человек в тени. Характеристика душности погоды. При расчете учитывается влияние влажности воздуха и скорости ветра на теплоощущения человека.
Tes - Эффективная температура на солнце - температура, которую ощущает человек, с поправкой на солнечный нагрев. Характеристика знойности погоды. Зависит от высоты солнца над горизонтом, облачности и скорости ветра. Ночью, в пасмурную погоду, а также при ветре 12 м/с и более поправка равна нулю.
P - Атмосферное давление - приведенное к уровню моря атмосферное давление.
Po - Атмосферное давление - измеренное на уровне метеостанции атмосферное давление.
Tmin - Минимальная температура - минимум температуры воздуха на высоте 2 м над землей.
Tmax - Максимальная температура - максимум температуры воздуха на высоте 2 м над землей.
R - Количество осадков - Количество выпавших осадков за период времени, мм. При наведении курсора мыши на число - период времени, за который выпало указанное количество осадков.
R24 - Количество осадков - Количество выпавших осадков за 24 часа, мм.
S - Снежный покров - Высота снежного покрова, см. При наведении курсора мыши на число - состояние снежного покрова и степень покрытия местности в баллах.